Location: Obersdorf
(47.4079°N, 10.2781°E)
Time: 01:34:15
(UTC+01:00)

XW-2C - Pass Details

Date: 05 December 2021
Orbit: 503 x 523 km, 97.5° (Epoch: 16 January)

Event Time Altitude Azimuth Distance (km) Brightness Sun altitude
Rises 18:20:34 0° 201° (SSW) 2,614 ? -18.1°
Reaches altitude 10° 18:23:05 10° 219° (SW) 1,738 ? -18.5°
Maximum altitude 18:25:52 20° 267° (W) 1,255 ? -19.0°
Drops below altitude 10° 18:28:41 10° 315° (NW) 1,759 ? -19.4°
Sets 18:31:15 0° 333° (NNW) 2,657 ? -19.9°
